| time (UTC) | temp C | wind direction | speed KPH | gust KPH | rain 1hr cm | rain 24hr cm | rain mn cm | humidity % | barometer mb |
| 20260831110107 | 28 | 246 | 24.1 | 35.4 | 0.00 | 0.00 | 0.00 | 40 | 1017.1 |
| 20260831104611 | 28 | 242 | 14.5 | 33.8 | 0.00 | 0.00 | 0.00 | 41 | 1017.2 |
| 20260831103054 | 28 | 226 | 14.5 | 32.2 | 0.00 | 0.00 | 0.00 | 40 | 1017.2 |
| 20260831101552 | 27 | 227 | 17.7 | 29.0 | 0.00 | 0.00 | 0.00 | 43 | 1017.3 |
| 20260831100108 | 28 | 251 | 17.7 | 30.6 | 0.00 | 0.00 | 0.00 | 43 | 1017.3 |
| 20260831094550 | 26 | 253 | 17.7 | 27.4 | 0.00 | 0.00 | 0.00 | 45 | 1017.4 |
| 20260831093106 | 28 | 256 | 8.0 | 19.3 | 0.00 | 0.00 | 0.00 | 47 | 1017.4 |
| 20260831091554 | 27 | 204 | 6.4 | 17.7 | 0.00 | 0.00 | 0.00 | 49 | 1017.4 |
| 20260831090051 | 27 | 221 | 4.8 | 14.5 | 0.00 | 0.00 | 0.00 | 48 | 1017.7 |
| 20260831084601 | 27 | 190 | 6.4 | 16.1 | 0.00 | 0.00 | 0.00 | 48 | 1017.8 |
| 20260831083054 | 26 | 207 | 6.4 | 14.5 | 0.00 | 0.00 | 0.00 | 50 | 1018.1 |
| 20260831081553 | 25 | 198 | 3.2 | 12.9 | 0.00 | 0.00 | 0.00 | 54 | 1018.2 |
| 20260831080107 | 25 | 190 | 6.4 | 12.9 | 0.00 | 0.00 | 0.00 | 56 | 1018.2 |
| 20260831074557 | 23 | 185 | 4.8 | 8.0 | 0.00 | 0.00 | 0.00 | 59 | 1018.3 |
| 20260831073103 | 22 | 196 | 3.2 | 8.0 | 0.00 | 0.00 | 0.00 | 63 | 1018.3 |
| 20260831071549 | 21 | 188 | 3.2 | 8.0 | 0.00 | 0.00 | 0.00 | 65 | 1018.4 |
| 20260831070114 | 20 | 132 | 1.6 | 6.4 | 0.00 | 0.00 | 0.00 | 69 | 1018.5 |
| 20260831064554 | 19 | 123 | 3.2 | 6.4 | 0.00 | 0.00 | 0.00 | 70 | 1018.7 |
| 20260831063054 | 18 | 75 | 1.6 | 4.8 | 0.00 | 0.00 | 0.00 | 70 | 1018.7 |
| 20260831061551 | 18 | 0 | 0.0 | 3.2 | 0.00 | 0.00 | 0.00 | 75 | 1018.9 |
| 20260831060103 | 16 | 0 | 0.0 | 0.0 | 0.00 | 0.00 | 0.00 | 83 | 1018.9 |
| 20260831054555 | 15 | 0 | 0.0 | 1.6 | 0.00 | 0.00 | 0.00 | 88 | 1019.0 |
| 20260831053101 | 12 | 0 | 0.0 | 0.0 | 0.00 | 0.00 | 0.00 | 89 | 1019.0 |
| 20260831051556 | 11 | 0 | 0.0 | 0.0 | 0.00 | 0.00 | 0.00 | 90 | 1018.9 |
| 20260831050056 | 10 | 0 | 0.0 | 1.6 | 0.00 | 0.00 | 0.00 | 89 | 1018.8 |
| 20260831044610 | 9 | 0 | 0.0 | 3.2 | 0.00 | 0.00 | 0.00 | 89 | 1018.8 |
| 20260831043058 | 8 | 0 | 0.0 | 3.2 | 0.00 | 0.00 | 0.00 | 89 | 1018.8 |
| 20260831041559 | 8 | 0 | 0.0 | 1.6 | 0.00 | 0.00 | 0.00 | 88 | 1018.8 |
| 20260831040052 | 8 | 292 | 0.0 | 3.2 | 0.00 | 0.00 | 0.00 | 88 | 1018.8 |
| 20260831034557 | 8 | 0 | 1.6 | 4.8 | 0.00 | 0.00 | 0.00 | 88 | 1018.8 |
| 20260831033049 | 8 | 290 | 3.2 | 6.4 | 0.00 | 0.00 | 0.00 | 88 | 1018.8 |
| 20260831031556 | 8 | 224 | 1.6 | 6.4 | 0.00 | 0.00 | 0.00 | 88 | 1018.9 |
| 20260831024548 | 9 | 0 | 0.0 | 0.0 | 0.00 | 0.00 | 0.00 | 87 | 1018.8 |
| 20260831023055 | 9 | 152 | 0.0 | 8.0 | 0.00 | 0.00 | 0.00 | 87 | 1018.9 |
| 20260831021553 | 10 | 0 | 0.0 | 8.0 | 0.00 | 0.00 | 0.00 | 88 | 1018.8 |
| 20260831020052 | 10 | 150 | 0.0 | 4.8 | 0.00 | 0.00 | 0.00 | 88 | 1018.8 |
| 20260831014602 | 10 | 150 | 3.2 | 6.4 | 0.00 | 0.00 | 0.00 | 87 | 1018.7 |
| 20260831013057 | 10 | 0 | 3.2 | 6.4 | 0.00 | 0.00 | 0.00 | 87 | 1018.8 |
| 20260831011615 | 10 | 302 | 0.0 | 4.8 | 0.00 | 0.00 | 0.00 | 87 | 1018.7 |
| 20260831010058 | 10 | 302 | 0.0 | 6.4 | 0.00 | 0.00 | 0.00 | 86 | 1018.8 |
| 20260831004606 | 10 | 311 | 3.2 | 6.4 | 0.00 | 0.00 | 0.00 | 86 | 1018.8 |
| 20260831003104 | 10 | 298 | 4.8 | 6.4 | 0.00 | 0.00 | 0.00 | 86 | 1018.9 |
| 20260831001606 | 10 | 295 | 4.8 | 6.4 | 0.00 | 0.00 | 0.00 | 85 | 1019.0 |
| 20260831000058 | 11 | 340 | 0.0 | 4.8 | 0.00 | 0.00 | 0.00 | 85 | 1019.0 |
| 20260830234555 | 11 | 0 | 0.0 | 3.2 | 0.00 | 0.00 | 0.00 | 85 | 1018.8 |
| 20260830233055 | 12 | 352 | 1.6 | 6.4 | 0.00 | 0.00 | 0.00 | 85 | 1018.9 |
| 20260830231608 | 11 | 323 | 1.6 | 4.8 | 0.00 | 0.00 | 0.00 | 86 | 1019.0 |
| 20260830230057 | 11 | 321 | 3.2 | 8.0 | 0.00 | 0.00 | 0.00 | 86 | 1019.2 |
| 20260830224608 | 11 | 308 | 3.2 | 6.4 | 0.00 | 0.00 | 0.00 | 85 | 1019.2 |
| 20260830223054 | 11 | 319 | 1.6 | 6.4 | 0.00 | 0.00 | 0.00 | 85 | 1019.0 |
| 20260830221548 | 11 | 307 | 3.2 | 6.4 | 0.00 | 0.00 | 0.00 | 85 | 1018.9 |
| 20260830214604 | 12 | 302 | 1.6 | 6.4 | 0.00 | 0.00 | 0.00 | 85 | 1019.2 |
| 20260830213053 | 12 | 302 | 1.6 | 6.4 | 0.00 | 0.00 | 0.00 | 86 | 1018.9 |
| 20260830204559 | 12 | 0 | 0.0 | 4.8 | 0.00 | 0.00 | 0.00 | 84 | 1018.9 |
| 20260830203056 | 12 | 301 | 0.0 | 3.2 | 0.00 | 0.00 | 0.00 | 83 | 1018.8 |
| 20260830201552 | 12 | 301 | 1.6 | 4.8 | 0.00 | 0.00 | 0.00 | 83 | 1018.7 |
| 20260830200050 | 12 | 301 | 1.6 | 3.2 | 0.00 | 0.00 | 0.00 | 82 | 1018.9 |
| 20260830194601 | 13 | 301 | 1.6 | 4.8 | 0.00 | 0.00 | 0.00 | 81 | 1018.7 |
| 20260830193055 | 13 | 301 | 3.2 | 4.8 | 0.00 | 0.00 | 0.00 | 79 | 1018.6 |
| 20260830191551 | 14 | 301 | 3.2 | 4.8 | 0.00 | 0.00 | 0.00 | 78 | 1018.7 |
| 20260830190051 | 15 | 0 | 0.0 | 4.8 | 0.00 | 0.00 | 0.00 | 76 | 1018.6 |
| 20260830184559 | 16 | 301 | 1.6 | 8.0 | 0.00 | 0.00 | 0.00 | 75 | 1018.4 |
| 20260830183054 | 16 | 327 | 3.2 | 11.3 | 0.00 | 0.00 | 0.00 | 75 | 1018.4 |
| 20260830181551 | 16 | 310 | 4.8 | 8.0 | 0.00 | 0.00 | 0.00 | 76 | 1018.2 |
| 20260830180103 | 17 | 267 | 3.2 | 6.4 | 0.00 | 0.00 | 0.00 | 73 | 1018.1 |
| 20260830174556 | 18 | 0 | 0.0 | 1.6 | 0.00 | 0.00 | 0.00 | 70 | 1017.9 |
| 20260830173053 | 20 | 267 | 0.0 | 6.4 | 0.00 | 0.00 | 0.00 | 68 | 1017.8 |
| 20260830171557 | 21 | 262 | 4.8 | 6.4 | 0.00 | 0.00 | 0.00 | 64 | 1017.7 |
| 20260830170101 | 22 | 0 | 0.0 | 3.2 | 0.00 | 0.00 | 0.00 | 58 | 1017.6 |
| 20260830164601 | 23 | 261 | 1.6 | 4.8 | 0.00 | 0.00 | 0.00 | 56 | 1017.5 |
| 20260830163100 | 23 | 261 | 4.8 | 11.3 | 0.00 | 0.00 | 0.00 | 53 | 1017.4 |
| 20260830161600 | 24 | 254 | 9.7 | 16.1 | 0.00 | 0.00 | 0.00 | 49 | 1017.5 |
| 20260830160053 | 25 | 257 | 11.3 | 16.1 | 0.00 | 0.00 | 0.00 | 48 | 1017.4 |
| 20260830154601 | 26 | 257 | 8.0 | 17.7 | 0.00 | 0.00 | 0.00 | 47 | 1017.3 |
| 20260830153059 | 26 | 261 | 12.9 | 22.5 | 0.00 | 0.00 | 0.00 | 45 | 1017.4 |
| 20260830151608 | 26 | 259 | 12.9 | 20.9 | 0.00 | 0.00 | 0.00 | 45 | 1017.5 |
| 20260830150055 | 26 | 250 | 16.1 | 20.9 | 0.00 | 0.00 | 0.00 | 44 | 1017.5 |
| 20260830144552 | 26 | 252 | 16.1 | 22.5 | 0.00 | 0.00 | 0.00 | 40 | 1017.4 |
| 20260830143110 | 26 | 250 | 17.7 | 25.7 | 0.00 | 0.00 | 0.00 | 42 | 1017.7 |
| 20260830141551 | 26 | 265 | 17.7 | 25.7 | 0.00 | 0.00 | 0.00 | 42 | 1017.7 |
| 20260830140051 | 27 | 257 | 12.9 | 25.7 | 0.00 | 0.00 | 0.00 | 41 | 1017.6 |
| 20260830134555 | 27 | 265 | 17.7 | 32.2 | 0.00 | 0.00 | 0.00 | 42 | 1017.8 |
| 20260830133051 | 26 | 270 | 19.3 | 27.4 | 0.00 | 0.00 | 0.00 | 41 | 1017.8 |
| 20260830131603 | 26 | 242 | 16.1 | 27.4 | 0.00 | 0.00 | 0.00 | 40 | 1017.8 |
| 20260830130107 | 26 | 251 | 22.5 | 37.0 | 0.00 | 0.00 | 0.00 | 35 | 1017.9 |
| 20260830124555 | 26 | 241 | 22.5 | 32.2 | 0.00 | 0.00 | 0.00 | 38 | 1017.9 |
| 20260830123108 | 26 | 249 | 14.5 | 27.4 | 0.00 | 0.00 | 0.00 | 39 | 1017.9 |
| 20260830121605 | 26 | 268 | 12.9 | 29.0 | 0.00 | 0.00 | 0.00 | 40 | 1018.0 |
| 20260830120058 | 26 | 273 | 16.1 | 25.7 | 0.00 | 0.00 | 0.00 | 43 | 1018.2 |
| 20260830114610 | 26 | 241 | 22.5 | 32.2 | 0.00 | 0.00 | 0.00 | 41 | 1018.4 |
| 20260830113100 | 26 | 235 | 17.7 | 29.0 | 0.00 | 0.00 | 0.00 | 42 | 1018.5 |
| 20260830111601 | 25 | 246 | 20.9 | 29.0 | 0.00 | 0.00 | 0.00 | 40 | 1018.6 |